Tracking 34305 objects as of 6-Jun-2026
HD Live streaming from Space Station
objects crossing your sky now

QIANFAN-127

Track QIANFAN-127 now!
10-day predictions
QIANFAN-127 is classified as:


NORAD ID: 69073
Int'l Code: 2026-104A
Perigee: 822.9 km
Apogee: 830.6 km
Inclination: 89.0 °
Period: 101.3 minutes
Semi major axis: 7197 km
RCS: Unknown
Launch date: May 12, 2026
Source: People's Republic of China (PRC)
Launch site: Taiyaun Space Center, China (TSC)
Your satellite tracking list
Your tracking list is empty




NASA's NSSDC Master Catalog

Two Line Element Set (TLE):
1 69073U 26104A   26156.93538385  .00000123  00000-0  49602-4 0  9993
2 69073  88.9863 342.8890 0005345 137.1722 222.9886 14.21690886  3491
Source of the keplerian elements: AFSPC